Overview Statistics Trail Chart Weather Telemetry Raw packets
 

This is the latest recevied weather packets stored in our database for station/object 4S6DRJ-13. If no packets are shown the sender has not sent any weather packets the latest 10 day(s).

<< 259 260 261 262 263 264 265 >>
Time Temp. Humidity Pressure Rain* Wind** Luminosity Snow
1788086917 30.56° C 71% 1007.9 hPa 0 mm 2.68 m/s, 80° 200 W/m² -
1788086856 30.56° C 71% 1007.8 hPa 0 mm 2.24 m/s, 200° 211 W/m² -
1788086795 30.56° C 72% 1007.8 hPa 0 mm 0.89 m/s, 193° 202 W/m² -
1788086734 30° C 73% 1008.1 hPa 0 mm 0.89 m/s, 288° 506 W/m² -
1788086673 30° C 72% 1007.9 hPa 0 mm 1.79 m/s, 265° 505 W/m² -
1788086612 30° C 73% 1008 hPa 0 mm 1.79 m/s, 218° 532 W/m² -
1788086552 30° C 73% 1008.1 hPa 0 mm 2.24 m/s, 284° 569 W/m² -
1788086491 30° C 73% 1008 hPa 0 mm 1.79 m/s, 92° 571 W/m² -
1788086429 30° C 72% 1008.1 hPa 0 mm 1.34 m/s, 56° 250 W/m² -
1788086368 30° C 72% 1007.9 hPa 0 mm 1.79 m/s, 198° 230 W/m² -
1788086307 30° C 72% 1008 hPa 0 mm 1.79 m/s, 231° 274 W/m² -
1788086247 30° C 72% 1008 hPa 0 mm 2.68 m/s, 260° 618 W/m² -
1788086185 30° C 72% 1007.9 hPa 0 mm 3.58 m/s, 179° 591 W/m² -
1788086124 30° C 72% 1008 hPa 0 mm 1.79 m/s, 194° 241 W/m² -
1788086064 30° C 72% 1007.9 hPa 0 mm 2.24 m/s, 266° 253 W/m² -
1788086002 30° C 72% 1007.9 hPa 0 mm 1.34 m/s, 229° 264 W/m² -
1788085940 30° C 71% 1007.9 hPa 0 mm 1.79 m/s, 290° 262 W/m² -
1788085879 30° C 71% 1007.9 hPa 0 mm 2.24 m/s, 283° 218 W/m² -
1788085819 30° C 72% 1008.1 hPa 0 mm 1.79 m/s, 333° 223 W/m² -
1788085758 30° C 72% 1007.9 hPa 0 mm 0.89 m/s, 340° 231 W/m² -
1788085697 30.56° C 71% 1007.9 hPa 0 mm 2.68 m/s, 175° 242 W/m² -
1788085635 30.56° C 71% 1008 hPa 0 mm 2.24 m/s, 242° 254 W/m² -
1788085575 30° C 72% 1007.9 hPa 0 mm 1.79 m/s, 287° 267 W/m² -
1788085513 30° C 72% 1007.9 hPa 0 mm 1.79 m/s, 204° 275 W/m² -
1788085453 30° C 72% 1007.9 hPa 0 mm 0.89 m/s, 251° 293 W/m² -

* Rain latest hour (hover to see other rain measurements)
** Current wind speed in m/s (hover to see current wind gust speed)